Regional Weather Roundup
Issued by NWS Cleveland, OH

Home | Current Version | Previous Version | Graphics & Text | Print | Product List | Glossary On
Versions: 1 2 3 4 5 6 7 8 9 10 11 12 13 14 15 16 17 18 19 20 21 22 23 24 25 26 27 28 29 30 31 32 33 34 35 36 37 38 39 40 41 42 43 44 45 46 47 48 49 50
000
ASUS41 KCLE 240502
RWRCLE
OHIO REGIONAL WEATHER ROUNDUP
NATIONAL WEATHER SERVICE CLEVELAND, OH
100 AM EDT THU JUL 24 2014

NOTE: "FAIR" INDICATES FEW OR NO CLOUDS BELOW 12,000 FEET WITH NO
SIGNIFICANT WEATHER AND/OR OBSTRUCTIONS TO VISIBILITY.

OHZ001>008-015>018-024>027-034-035-043-044-240600-
   NORTHWEST OHIO

CITY           SKY/WX    TMP DP  RH WIND       PRES   REMARKS
DEFIANCE       CLOUDY    63  60  90 CALM      30.08R
FINDLAY        CLEAR     61  57  87 NE3       30.06S
TOLEDO EXPRESS PTCLDY    62  57  83 N5        30.08S
TOLEDO EXEC    CLEAR     64  54  69 NE7       30.07F
LIMA           CLEAR     60  58  92 CALM      30.07S FOG
$$

OHZ009>014-019>023-028>033-038-089-240600-
   NORTHEAST OHIO

CITY           SKY/WX    TMP DP  RH WIND       PRES   REMARKS
CLE-HOPKINS    CLOUDY    64  58  80 N10       30.06S
CLE-LAKEFRONT  CLOUDY    66  59  78 N15       30.03F
CUY CO. ARPT   NOT AVBL
LORAIN-ELYRIA  CLOUDY    65  57  75 N6        30.06S
ASHTABULA      MOCLDY    63  53  70 N5        30.04S
AKRON-CANTON   CLEAR     61  55  81 N6        30.04R
WOOSTER        CLEAR     57  54  89 N8        30.05S
MANSFIELD      CLEAR     57  55  93 N7        30.06F
YOUNGSTOWN     CLOUDY    62  59  90 NW3       30.03S
$$

OHZ042-051>053-060>062-070>072-077>081-240600-
  SOUTHWEST OHIO

CITY           SKY/WX    TMP DP  RH WIND       PRES   REMARKS
CINC-COVINGTON LGT RAIN  69  65  86 NE12      30.01S
CINC-LUNKEN    CLOUDY    68  66  93 NE9       30.02S
HAMILTON       CLOUDY    68  65  90 NE8       30.03S
DAYTON         PTCLDY    63  59  87 NE8       30.05F
WRIGHT-PAT AFB MOCLDY    64  60  86 NE10      30.04F
DAYTON GENERAL CLOUDY    66  62  87 NE9       30.03S
WILMINGTON     CLOUDY    65  59  81 NE13      30.03S
$$

OHZ036-037-039>041-045>050-054>059-063>069-073>076-082>088-240600-
  CENTRAL AND SOUTHEAST OHIO

CITY           SKY/WX    TMP DP  RH WIND       PRES   REMARKS
COLUMBUS       MOCLDY    65  55  70 NE10      30.03F
OSU AIRPORT    PTCLDY    61  55  81 NE8       30.04F
BOLTON FIELD   CLOUDY    63  57  81 N13       30.04S
RICKENBACK AFB CLOUDY    65  55  70 N12       30.00S
NEWARK         CLOUDY    64  55  72 N5        30.03F
MARION         CLEAR     59  55  87 N5        30.06S
LANCASTER      CLOUDY    64  59  83 N6        30.04R
ZANESVILLE     CLOUDY    64  56  75 N6        30.03F
NEW PHILLY     MOCLDY    63  57  81 N5        30.04R
$$


USA.gov is the U.S. government's official web portal to all federal, state and local government web resources and services.